DLH29E EDDW-EDDB

Flight info

Callsign DLH29E
Flight time 0h 36m
Altitude 23000
Route GESTO8M GESTO Z870 BKD L619 VIBIS T209 OGBER
Aircraft A319/M-SDE3FGHIRWY/LB1

Departure

Time 2026-05-06 07:55
Airport Bremen Airport (EDDW)

Arrival

Time 2026-05-06 08:31
Airport Berlin Brandenburg Airport (EDDB)
Time Latitude Longitude Altitude Speed Heading
2026-05-06 07:26 53.05097 8.78644 22 ft 0 kts 47°
2026-05-06 07:44 53.05096 8.78643 22 ft 1 kts 47°
2026-05-06 07:44 53.05080 8.78614 23 ft 4 kts 42°
2026-05-06 07:45 53.05059 8.78587 23 ft 4 kts 27°
2026-05-06 07:45 53.05036 8.78577 23 ft 4 kts 336°
2026-05-06 07:45 53.05029 8.78582 24 ft 0 kts 318°
2026-05-06 07:47 53.05034 8.78574 23 ft 3 kts 318°
2026-05-06 07:48 53.05065 8.78530 22 ft 8 kts 319°
2026-05-06 07:48 53.05104 8.78475 22 ft 9 kts 319°
2026-05-06 07:48 53.05153 8.78379 22 ft 13 kts 296°
2026-05-06 07:48 53.05176 8.78290 22 ft 0 kts 289°
2026-05-06 07:52 53.05176 8.78287 22 ft 2 kts 288°
2026-05-06 07:52 53.05186 8.78224 22 ft 9 kts 284°
2026-05-06 07:52 53.05192 8.78094 22 ft 14 kts 255°
2026-05-06 07:52 53.05143 8.77942 22 ft 15 kts 233°
2026-05-06 07:53 53.05072 8.77811 22 ft 15 kts 227°
2026-05-06 07:53 53.04998 8.77676 22 ft 17 kts 227°
2026-05-06 07:53 53.04911 8.77534 22 ft 18 kts 214°
2026-05-06 07:53 53.04796 8.77458 23 ft 17 kts 190°
2026-05-06 07:54 53.04684 8.77460 22 ft 15 kts 175°
2026-05-06 07:54 53.04656 8.77566 20 ft 16 kts 87°
2026-05-06 07:54 53.04673 8.78149 21 ft 89 kts 88°
2026-05-06 07:54 53.04708 8.79545 50 ft 147 kts 84°
2026-05-06 07:55 53.04725 8.81234 679 ft 147 kts 87°
2026-05-06 07:55 53.04749 8.82922 1402 ft 152 kts 84°
2026-05-06 07:55 53.04799 8.84777 1908 ft 170 kts 84°
2026-05-06 07:55 53.04867 8.86871 2326 ft 195 kts 85°
2026-05-06 07:56 53.04934 8.89296 2773 ft 222 kts 86°
2026-05-06 07:56 53.05085 8.91971 3431 ft 240 kts 79°
2026-05-06 07:56 53.05467 8.94693 4431 ft 244 kts 73°
2026-05-06 07:56 53.06028 8.97403 5337 ft 252 kts 70°
2026-05-06 07:57 53.06682 9.00152 6274 ft 258 kts 69°
2026-05-06 07:57 53.07325 9.02950 7197 ft 262 kts 75°
2026-05-06 07:57 53.07713 9.05929 8107 ft 266 kts 75°
2026-05-06 07:57 53.08618 9.08614 8987 ft 272 kts 49°
2026-05-06 07:58 53.09899 9.10960 9885 ft 275 kts 52°
2026-05-06 07:58 53.11067 9.13516 10705 ft 279 kts 54°
2026-05-06 07:58 53.12241 9.16116 11531 ft 283 kts 54°
2026-05-06 07:58 53.13446 9.18756 12298 ft 290 kts 54°
2026-05-06 07:59 53.14674 9.21460 13068 ft 295 kts 58°
2026-05-06 07:59 53.15713 9.24427 13830 ft 299 kts 64°
2026-05-06 07:59 53.16700 9.27514 14503 ft 305 kts 64°
2026-05-06 07:59 53.17702 9.30665 15190 ft 310 kts 64°
2026-05-06 08:00 53.18732 9.33860 15879 ft 315 kts 64°
2026-05-06 08:00 53.19773 9.37106 16557 ft 320 kts 64°
2026-05-06 08:00 53.20834 9.40401 17242 ft 325 kts 64°
2026-05-06 08:00 53.21914 9.43753 17939 ft 330 kts 64°
2026-05-06 08:01 53.23003 9.47152 18564 ft 334 kts 64°
2026-05-06 08:01 53.24107 9.50599 19162 ft 339 kts 64°
2026-05-06 08:01 53.25187 9.54118 19755 ft 341 kts 70°
2026-05-06 08:01 53.25982 9.57807 20344 ft 344 kts 74°
2026-05-06 08:02 53.26633 9.61659 20928 ft 345 kts 82°
2026-05-06 08:02 53.27012 9.65632 21522 ft 348 kts 84°
2026-05-06 08:02 53.27364 9.69657 22105 ft 352 kts 84°
2026-05-06 08:02 53.27712 9.73720 22677 ft 355 kts 84°
2026-05-06 08:03 53.28060 9.77828 23271 ft 359 kts 84°
2026-05-06 08:03 53.28411 9.81979 23782 ft 363 kts 84°
2026-05-06 08:03 53.28765 9.86167 24317 ft 365 kts 84°
2026-05-06 08:03 53.29118 9.90374 24855 ft 366 kts 85°
2026-05-06 08:04 53.29148 9.94598 25404 ft 364 kts 101°
2026-05-06 08:04 53.28483 9.98672 25962 ft 363 kts 111°
2026-05-06 08:04 53.27678 10.02679 26539 ft 365 kts 111°
2026-05-06 08:04 53.26855 10.06706 27107 ft 367 kts 111°
2026-05-06 08:05 53.26027 10.10749 27668 ft 369 kts 111°
2026-05-06 08:05 53.25197 10.14809 28212 ft 371 kts 111°
2026-05-06 08:05 53.24358 10.18903 28709 ft 373 kts 111°
2026-05-06 08:05 53.23516 10.23006 28833 ft 373 kts 111°
2026-05-06 08:06 53.21839 10.31186 28831 ft 376 kts 110°
2026-05-06 08:06 53.20971 10.35400 28839 ft 391 kts 110°
2026-05-06 08:06 53.20074 10.39738 29023 ft 400 kts 110°
2026-05-06 08:07 53.19158 10.44156 29315 ft 406 kts 110°
2026-05-06 08:07 53.18229 10.48633 29614 ft 412 kts 110°
2026-05-06 08:07 53.17300 10.53117 29888 ft 417 kts 110°
2026-05-06 08:07 53.16352 10.57686 30136 ft 418 kts 110°
2026-05-06 08:08 53.15399 10.62272 30380 ft 418 kts 110°
2026-05-06 08:08 53.14446 10.66838 30626 ft 417 kts 110°
2026-05-06 08:08 53.13491 10.71410 30796 ft 417 kts 111°
2026-05-06 08:08 53.12533 10.75971 30820 ft 416 kts 111°
2026-05-06 08:09 53.10613 10.85071 30830 ft 417 kts 110°
2026-05-06 08:09 53.09439 10.94539 30830 ft 419 kts 100°
2026-05-06 08:10 53.08510 11.04107 30832 ft 419 kts 101°
2026-05-06 08:10 53.07573 11.13671 30827 ft 419 kts 101°
2026-05-06 08:11 53.06627 11.23228 30820 ft 419 kts 101°
2026-05-06 08:11 53.05667 11.32776 30810 ft 419 kts 100°
2026-05-06 08:12 53.04701 11.42262 30809 ft 419 kts 100°
2026-05-06 08:12 53.03706 11.51994 30825 ft 436 kts 100°
2026-05-06 08:13 53.02243 11.61821 30107 ft 441 kts 106°
2026-05-06 08:13 53.01414 11.66769 28898 ft 447 kts 106°
2026-05-06 08:13 53.00583 11.71707 28154 ft 442 kts 106°
2026-05-06 08:14 52.99762 11.76592 27393 ft 437 kts 106°
2026-05-06 08:14 52.99075 11.81498 26577 ft 437 kts 98°
2026-05-06 08:14 52.98857 11.86511 25835 ft 435 kts 93°
2026-05-06 08:14 52.98734 11.91514 25122 ft 433 kts 93°
2026-05-06 08:15 52.98605 11.96485 24444 ft 430 kts 93°
2026-05-06 08:15 52.98470 12.01432 23768 ft 428 kts 94°
2026-05-06 08:15 52.98331 12.06359 23036 ft 426 kts 94°
2026-05-06 08:15 52.98192 12.11228 22510 ft 419 kts 94°
2026-05-06 08:16 52.98051 12.16017 22007 ft 413 kts 94°
2026-05-06 08:16 52.97911 12.20742 21504 ft 408 kts 94°
2026-05-06 08:16 52.97737 12.25415 21000 ft 403 kts 98°
2026-05-06 08:16 52.97068 12.29884 20511 ft 398 kts 113°
2026-05-06 08:17 52.95742 12.33805 20327 ft 382 kts 129°
2026-05-06 08:17 52.93924 12.36857 20238 ft 365 kts 144°
2026-05-06 08:17 52.91831 12.39089 20154 ft 350 kts 150°
2026-05-06 08:17 52.89735 12.41174 19944 ft 363 kts 151°
2026-05-06 08:18 52.87548 12.43324 19709 ft 367 kts 151°
2026-05-06 08:18 52.85361 12.45470 19209 ft 365 kts 151°
2026-05-06 08:18 52.83178 12.47617 18723 ft 363 kts 151°
2026-05-06 08:18 52.81012 12.49744 18260 ft 361 kts 151°
2026-05-06 08:19 52.78835 12.51875 17456 ft 366 kts 151°
2026-05-06 08:19 52.76642 12.54017 16849 ft 366 kts 151°
2026-05-06 08:19 52.74459 12.56147 16321 ft 363 kts 151°
2026-05-06 08:19 52.72288 12.58262 15817 ft 361 kts 151°
2026-05-06 08:20 52.70137 12.60354 15329 ft 358 kts 151°
2026-05-06 08:20 52.67996 12.62431 14850 ft 356 kts 151°
2026-05-06 08:20 52.65878 12.64489 14403 ft 352 kts 151°
2026-05-06 08:20 52.63786 12.66525 13982 ft 347 kts 151°
2026-05-06 08:21 52.61713 12.68540 13524 ft 344 kts 151°
2026-05-06 08:21 52.59660 12.70531 12978 ft 341 kts 151°
2026-05-06 08:21 52.57621 12.72502 12478 ft 338 kts 151°
2026-05-06 08:21 52.55601 12.74454 11920 ft 336 kts 151°
2026-05-06 08:22 52.53576 12.76411 11293 ft 338 kts 151°
2026-05-06 08:22 52.51547 12.78366 10520 ft 343 kts 151°
2026-05-06 08:22 52.49495 12.80340 10127 ft 336 kts 151°
2026-05-06 08:22 52.47522 12.82238 10005 ft 321 kts 151°
2026-05-06 08:23 52.45643 12.84051 9874 ft 305 kts 151°
2026-05-06 08:23 52.43880 12.85748 9631 ft 293 kts 151°
2026-05-06 08:23 52.42137 12.87420 9207 ft 289 kts 151°
2026-05-06 08:23 52.40397 12.89086 8726 ft 290 kts 150°
2026-05-06 08:24 52.38674 12.90737 8468 ft 286 kts 150°
2026-05-06 08:24 52.37007 12.92525 8044 ft 286 kts 139°
2026-05-06 08:24 52.35576 12.94751 7712 ft 282 kts 135°
2026-05-06 08:24 52.34193 12.96996 7428 ft 277 kts 135°
2026-05-06 08:25 52.32858 12.99155 7305 ft 263 kts 135°
2026-05-06 08:25 52.31589 13.01210 7173 ft 251 kts 135°
2026-05-06 08:25 52.30385 13.03171 7050 ft 237 kts 135°
2026-05-06 08:25 52.29235 13.05040 6797 ft 233 kts 135°
2026-05-06 08:26 52.28083 13.06907 6450 ft 233 kts 135°
2026-05-06 08:26 52.27176 13.09078 6102 ft 233 kts 107°
2026-05-06 08:26 52.26852 13.11659 5741 ft 233 kts 96°
2026-05-06 08:26 52.26811 13.14318 5324 ft 237 kts 77°
2026-05-06 08:27 52.27338 13.16850 5033 ft 233 kts 65°
2026-05-06 08:27 52.27925 13.19251 4897 ft 221 kts 66°
2026-05-06 08:27 52.28479 13.21539 4765 ft 212 kts 65°
2026-05-06 08:27 52.29002 13.23709 4577 ft 202 kts 65°
2026-05-06 08:28 52.29524 13.25871 4056 ft 208 kts 66°
2026-05-06 08:28 52.30062 13.28107 3461 ft 214 kts 67°
2026-05-06 08:28 52.30609 13.30384 2770 ft 216 kts 68°
2026-05-06 08:28 52.31155 13.32662 2128 ft 213 kts 67°
2026-05-06 08:29 52.31675 13.34839 1769 ft 198 kts 66°
2026-05-06 08:29 52.32151 13.36830 1531 ft 179 kts 66°
2026-05-06 08:29 52.32595 13.38686 1273 ft 171 kts 66°
2026-05-06 08:29 52.33010 13.40422 1025 ft 157 kts 66°
2026-05-06 08:30 52.33390 13.42026 824 ft 145 kts 67°
2026-05-06 08:30 52.33749 13.43527 590 ft 138 kts 67°
2026-05-06 08:30 52.34090 13.44946 427 ft 132 kts 66°
2026-05-06 08:30 52.34420 13.46325 263 ft 129 kts 66°
2026-05-06 08:31 52.34741 13.47670 155 ft 120 kts 68°
2026-05-06 08:31 52.34986 13.48706 154 ft 73 kts 69°
2026-05-06 08:31 52.35116 13.49255 154 ft 43 kts 69°
2026-05-06 08:31 52.35223 13.49700 154 ft 40 kts 68°
2026-05-06 08:32 52.35316 13.50100 154 ft 36 kts 69°
2026-05-06 08:32 52.35382 13.50363 155 ft 38 kts 61°
2026-05-06 08:32 52.35609 13.50725 155 ft 18 kts 39°
2026-05-06 08:32 52.35696 13.50834 155 ft 14 kts 27°
2026-05-06 08:33 52.35774 13.50823 155 ft 10 kts 340°
2026-05-06 08:33 52.35830 13.50789 155 ft 8 kts 338°
2026-05-06 08:33 52.35893 13.50748 155 ft 11 kts 339°
2026-05-06 08:33 52.35945 13.50716 155 ft 13 kts 339°
2026-05-06 08:34 52.36039 13.50657 155 ft 15 kts 339°
2026-05-06 08:34 52.36269 13.50511 155 ft 20 kts 339°
2026-05-06 08:34 52.36406 13.50424 155 ft 21 kts 338°
2026-05-06 08:35 52.36477 13.50394 155 ft 2 kts 53°
2026-05-06 08:35 52.36480 13.50412 155 ft 2 kts 72°
2026-05-06 08:35 52.36492 13.50466 155 ft 6 kts 68°
2026-05-06 08:35 52.36502 13.50507 155 ft 2 kts 69°
2026-05-06 08:36 52.36504 13.50518 155 ft 1 kts 69°
2026-05-06 08:36 52.36505 13.50520 155 ft 0 kts 69°